TimePST,TemperatureF,Dew PointF,Humidity,Sea Level PressureIn,VisibilityMPH,Wind Direction,Wind SpeedMPH,Gust SpeedMPH,PrecipitationIn,Events,Conditions,WindDirDegrees,DateUTC
12:52 AM,64.0,45.0,50,29.63,10.0,Variable,3.5,-,N/A,,Clear,0,2013-12-04 08:52:00
1:52 AM,66.0,44.1,45,29.62,9.0,WSW,19.6,29.9,N/A,,Clear,250,2013-12-04 09:52:00
2:29 AM,64.4,42.8,45,29.63,5.0,West,20.7,38.0,N/A,,Haze,280,2013-12-04 10:29:00
2:52 AM,64.0,42.1,45,29.65,9.0,West,17.3,28.8,N/A,,Partly Cloudy,270,2013-12-04 10:52:00
3:52 AM,62.1,42.1,48,29.67,10.0,NNW,10.4,18.4,N/A,,Clear,330,2013-12-04 11:52:00
4:52 AM,61.0,35.1,38,29.70,10.0,West,20.7,27.6,N/A,,Clear,270,2013-12-04 12:52:00
5:52 AM,57.9,35.1,42,29.75,10.0,NNW,11.5,-,N/A,,Clear,330,2013-12-04 13:52:00
6:52 AM,55.9,33.1,42,29.80,10.0,NW,5.8,-,N/A,,Clear,310,2013-12-04 14:52:00
7:52 AM,57.9,32.0,37,29.85,10.0,NW,6.9,-,N/A,,Clear,310,2013-12-04 15:52:00
8:52 AM,60.1,27.0,28,29.89,10.0,NNW,11.5,-,N/A,,Clear,330,2013-12-04 16:52:00
9:52 AM,62.1,19.0,19,29.90,10.0,NNW,11.5,-,N/A,,Clear,330,2013-12-04 17:52:00
10:06 AM,62.6,19.4,19,29.90,6.0,NNW,12.7,-,N/A,,Haze,330,2013-12-04 18:06:00
10:52 AM,64.0,21.0,19,29.90,10.0,NW,10.4,-,N/A,,Clear,320,2013-12-04 18:52:00
11:52 AM,64.0,24.1,22,29.88,10.0,WNW,9.2,-,N/A,,Clear,290,2013-12-04 19:52:00
12:52 PM,64.0,21.9,20,29.87,10.0,NNW,6.9,-,N/A,,Clear,340,2013-12-04 20:52:00
1:52 PM,63.0,23.0,22,29.88,10.0,Calm,Calm,-,N/A,,Clear,0,2013-12-04 21:52:00
2:52 PM,63.0,24.1,23,29.88,10.0,SSW,3.5,-,N/A,,Partly Cloudy,210,2013-12-04 22:52:00
3:52 PM,60.1,18.0,20,29.88,7.0,Variable,6.9,-,N/A,,Partly Cloudy,0,2013-12-04 23:52:00
4:52 PM,57.0,16.0,20,29.89,10.0,ENE,6.9,-,N/A,,Partly Cloudy,60,2013-12-05 00:52:00
5:52 PM,54.0,17.1,23,29.91,10.0,South,5.8,-,N/A,,Overcast,190,2013-12-05 01:52:00
6:52 PM,54.0,14.0,21,29.94,10.0,SE,4.6,-,N/A,,Overcast,140,2013-12-05 02:52:00
7:52 PM,50.0,15.1,25,29.94,10.0,Calm,Calm,-,N/A,,Clear,0,2013-12-05 03:52:00
8:52 PM,41.0,19.0,41,29.95,10.0,Calm,Calm,-,N/A,,Clear,0,2013-12-05 04:52:00
9:52 PM,42.1,21.0,43,29.96,10.0,Calm,Calm,-,N/A,,Clear,0,2013-12-05 05:52:00
10:52 PM,44.1,19.9,38,29.96,10.0,NE,5.8,-,N/A,,Clear,50,2013-12-05 06:52:00
11:52 PM,35.1,19.0,52,29.96,10.0,SSW,5.8,-,N/A,,Clear,200,2013-12-05 07:52:00